SHIJIAN-16 (SJ-16)

Last updated on Thu Nov 21 2024 00:02:13 GMT+0000 (Coordinated Universal Time)

1 39358U 13057A 24325.55624492 .00003026 00000+0 31471-3 0 9996 2 39358 74.9739 1.3167 0016519 186.6000 173.4972 14.90148432600892
UTC large
Height (km)
Speed (km/s)
/
Latitude / Longitude
Inclination (degrees)
Orbital Period (minutes)
Azimuth
Elevation
Range (km)
Doppler Factor

Next 0 passes for location: London (51.5072 / 0.1276)

Sorry there are no passes over London.